Weather in Mezen'

Russia / Arkhangel'skaya Oblast'     62°37′07″N   38°52′35″E
temp.,
°C
wind,
m/s
gust,
m/s
humid.,
%
clouds,
%
prec.,
mm/h
press.,
hPa
HPBL,
m
12 april, mon
mon1200:00+1sw41485100 0.0 1030515
03:000sw31188100 0.0 1032271
06:00−3sw269259 0.0 1033109
09:00+5ssw366538 0.0 1033342
12:00+8s5952100 0.0 1032960
15:00+8s5108076 0.0 1030621
18:00+8s5149167 0.0 1028608
21:00+8s51593100 0.0 1028503
13 april, tue
tue1300:00+7ssw5168981 0.0 1027523
03:00+5s41391100 0.0 1026410
06:00+5s41196100 0.3 1024471
09:00+6s41196100 1.9 1022495
12:00+7ssw41194100 1.9 1022640
15:00+9ssw4787100 2.5 1021520
18:00+8ssw3895100 0.0 1021456
21:00+7sw3897100 0.0 1021440
14 april, wed
wed1400:00+6ssw259573 0.0 1020113
03:00+5ssw249689 0.0 102089
06:00+5ssw2795100 0.0 1019174
09:00+7sw2692100 0.2 1018281
12:00+6w2599100 2.1 1017251
15:00+5nw2598100 2.8 1018372
18:00+3nnw3697100 1.6 1019527
21:00+3nnw1496100 2.9 1020294
15 april, thu
thu1500:00+2w1396100 0.3 1021133
03:00+2wnw2395100 0.3 102284
06:00+2n2691100 0.0 1023235
09:00+3nne3484100 0.0 1025547
12:00+5n226386 0.0 10261140
15:00+7nnw235083 0.1 10251542
18:00+6n23565 0.0 1025375
21:00+2n22703 0.0 102612
16 april, fri
fri1600:000ne01715 0.0 102710
03:000w22733 0.0 102721
06:000wnw25762 0.0 1027127
09:00+5nnw35595 0.0 1028761
12:00+7n575336 0.0 10291628
15:00+7n68485 0.0 10301660
18:00+5n59555 0.0 10321325
21:00+1n410680 0.0 1035656